Regional Weather Roundup
Issued by NWS Goodland, KS

Home | Current Version | Previous Version | Graphics & Text | Print | Product List | Glossary On
Versions: 1 2 3 4 5 6 7 8 9 10 11 12 13 14 15 16 17 18 19 20 21 22 23 24 25 26 27 28 29 30 31 32 33 34 35 36 37 38 39 40 41 42 43 44 45 46 47 48 49 50
000
ASUS43 KGLD 161008
RWRGLD

GOODLAND FORECAST AREA HOURLY WEATHER ROUNDUP
NATIONAL WEATHER SERVICE GOODLAND KS
400 AM MDT WED AUG 16 2017

...OFFICIAL OBSERVATIONS...

CITY           SKY/WX    TMP DP  RH WIND       PRES   REMARKS
GOODLAND KS    CLOUDY    60  59  96 N15       29.93F
HILL CITY KS   CLOUDY    63  61  93 NE17G23   29.80F
IMPERIAL NEB   CLOUDY    61  58  90 NW7       29.94R
MCCOOK NEB     LGT RAIN  62  61  96 N5        29.84S
AKRON CO       NOT AVBL
BURLINGTON CO  CLOUDY    61  58  90 N9        29.97F
LIMON CO       CLOUDY    54  52  93 NW7       30.05R
$$

...UNOFFICIAL OBSERVATIONS...

CITY           SKY/WX    TMP DP  RH WIND       PRES   REMARKS
LENORA KS        N/A     61  32  33 CALM        N/A
NORTON KS      LGT RAIN  61  55  82 NE21G26   29.78
SHARON SPRINGS   N/A     63  60  88 N12G23      N/A
TRENTON NEB      N/A     60  32  34 CALM        N/A
KIT CARSON CO    N/A     61  55  79 MISG        N/A
YUMA CO        FAIR      57  55  94 CALM      29.94F
$$




USA.gov is the U.S. government's official web portal to all federal, state and local government web resources and services.